Weather History for Hope, BC

Change the Weather History Date:

Friday, October 28, 2011

  Actual Average Record
Temperature  
Mean Temperature 45 °F -  
Max Temperature 51 °F 46 °F 60 °F (2003)
Min Temperature 39 °F 36 °F 35 °F (2004)
Degree Days  
Heating Degree Days 20    
Moisture  
Dew Point 42 °F    
Average Humidity 94    
Maximum Humidity 100    
Minimum Humidity 71    
Precipitation  
Precipitation 0.00 in 0.36 in - ()
Sea Level Pressure  
Sea Level Pressure 29.91 in    
Wind  
Wind Speed 6 mph ()    
Max Wind Speed 17 mph    
Max Gust Speed 32 mph    
Visibility 6.5 miles    
Events Rain    
Averages and records for this station are not official NWS values.
T = Trace of Precipitation, MM = Missing Value Source: Averaged Metar Reports

Daily Weather History Graph

Daily Weather History Graph

Search for Another Location

Airport:

Trip Planner

Search our weather history database for the weather conditions in past years. The results will help you decide how hot, cold, wet, or windy it might be!

Date:

Astronomy

Oct. 28, 2011 Rise Set
Actual Time 7:47 AM PDT 5:51 PM PDT
Civil Twilight 7:14 AM PDT 6:24 PM PDT
Nautical Twilight 6:36 AM PDT 7:01 PM PDT
Astronomical Twilight 5:59 AM PDT 7:38 PM PDT
Moon 10:26 AM PDT (10/28) 7:01 PM PDT (10/28)
Length of Visible Light 11h 10m
Length of Day
10h 03m
Waxing Crescent, 6% of the Moon is Illuminated
Oct 28
Waxing Crescent
Nov 2
First Quarter
Nov 10
Full
Nov 18
Last Quarter
Nov 24
New

Hourly Weather History & Observations

Time (PDT) Temp. Windchill Dew Point Humidity Pressure Visibility Wind Dir Wind Speed Gust Speed Precip Events Conditions
12:00 AM 39.2 °F 32.5 °F 37.4 °F 93% 30.15 in 9.0 mi East 10.4 mph - N/A   Clear
1:00 AM 39.2 °F 33.0 °F 37.4 °F 93% 30.13 in 9.0 mi East 9.2 mph - N/A   Mostly Cloudy
2:00 AM 39.2 °F 32.0 °F 37.4 °F 93% 30.10 in 9.0 mi ESE 11.5 mph - N/A   Partly Cloudy
3:00 AM 39.2 °F 32.5 °F 37.4 °F 93% 30.08 in 9.0 mi ESE 10.4 mph - N/A   Mostly Cloudy
4:00 AM 39.2 °F 33.6 °F 37.4 °F 93% 30.07 in 9.0 mi East 8.1 mph - N/A   Overcast
5:00 AM 39.2 °F 30.8 °F 37.4 °F 93% 30.06 in 9.0 mi ESE 15.0 mph - N/A   Mostly Cloudy
6:00 AM 39.2 °F 32.0 °F 37.4 °F 93% 30.05 in 9.0 mi ESE 11.5 mph - N/A   Overcast
7:00 AM 39.2 °F 35.9 °F 37.4 °F 93% 29.99 in 9.0 mi East 4.6 mph - N/A   Partly Cloudy
8:00 AM 39.2 °F 33.0 °F 37.4 °F 93% 29.95 in 9.0 mi ESE 9.2 mph - N/A   Mostly Cloudy
9:00 AM 39.2 °F 33.0 °F 37.4 °F 93% 29.93 in 9.0 mi ESE 9.2 mph - N/A   Overcast
10:00 AM 41.0 °F 38.0 °F 37.4 °F 87% 29.93 in 9.0 mi East 4.6 mph - N/A   Mostly Cloudy
11:00 AM 42.8 °F 38.0 °F 39.2 °F 87% 29.91 in 9.0 mi East 8.1 mph - N/A   Overcast
11:20 AM 42.8 °F 38.0 °F 39.2 °F 87% 29.91 in 9.0 mi ESE 8.1 mph - N/A Rain Light Rain
11:39 AM 42.8 °F 41.1 °F 39.2 °F 87% 29.93 in 9.0 mi Variable 3.5 mph - N/A   Overcast
11:44 AM 44.6 °F 43.1 °F 39.2 °F 81% 29.93 in 9.0 mi Variable 3.5 mph - N/A Rain Light Rain
12:00 PM 44.6 °F - 41.0 °F 87% 29.91 in 9.0 mi Calm Calm - N/A Rain Light Rain
12:02 PM 44.6 °F - 41.0 °F 87% 29.91 in 9.0 mi Variable 2.3 mph - N/A   Overcast
12:11 PM 44.6 °F 40.2 °F 39.2 °F 81% 29.91 in 9.0 mi ESE 8.1 mph - N/A Rain Light Rain
12:42 PM 42.8 °F 40.1 °F 41.0 °F 93% 29.91 in 5.0 mi Variable 4.6 mph - N/A Rain Rain
1:00 PM 42.8 °F 40.1 °F 41.0 °F 93% 29.91 in 5.0 mi WSW 4.6 mph - N/A Rain Rain
1:12 PM 42.8 °F - 41.0 °F 93% 29.90 in 3.0 mi Calm Calm - N/A   Overcast
1:13 PM 42.8 °F - 41.0 °F 93% 29.90 in 2.5 mi Variable 2.3 mph - N/A   Overcast
1:17 PM 42.8 °F - 41.0 °F 93% 29.90 in 2.5 mi Calm Calm - N/A   Overcast
2:00 PM 42.8 °F 41.1 °F 42.8 °F 100% 29.88 in 1.5 mi East 3.5 mph - N/A   Overcast
2:51 PM 42.8 °F 41.1 °F 42.8 °F 100% 29.90 in 2.5 mi West 3.5 mph - N/A   Overcast
2:54 PM 42.8 °F 41.1 °F 42.8 °F 100% 29.90 in 2.5 mi West 3.5 mph - N/A   Overcast
2:55 PM 42.8 °F 41.1 °F 42.8 °F 100% 29.90 in 3.0 mi West 3.5 mph - N/A   Overcast
2:59 PM 42.8 °F 41.1 °F 42.8 °F 100% 29.90 in 3.0 mi West 3.5 mph - N/A Rain Rain
3:06 PM 42.8 °F - 42.8 °F 100% 29.89 in 2.5 mi Calm Calm - N/A Rain Rain
3:07 PM 42.8 °F - 42.8 °F 100% 29.89 in 2.5 mi Calm Calm - N/A Rain Rain
3:16 PM 42.8 °F - 42.8 °F 100% 29.88 in 2.2 mi Calm Calm - N/A Rain Light Rain
3:32 PM 42.8 °F 38.6 °F 42.8 °F 100% 29.87 in 3.0 mi ESE 6.9 mph - N/A Rain Rain
3:43 PM 42.8 °F 37.0 °F 42.8 °F 100% 29.86 in 4.0 mi ESE 10.4 mph - N/A Rain Light Rain
3:50 PM 42.8 °F 37.5 °F 42.8 °F 100% 29.85 in 5.0 mi SE 9.2 mph - N/A Rain Rain
4:00 PM 42.8 °F 41.1 °F 42.8 °F 100% 29.86 in 5.0 mi Variable 3.5 mph - N/A Rain Rain
4:09 PM 42.8 °F 41.1 °F 42.8 °F 100% 29.86 in 3.0 mi Variable 3.5 mph - N/A Rain Rain
4:22 PM 42.8 °F - 42.8 °F 100% 29.87 in 4.0 mi Variable 2.3 mph - N/A Rain Light Rain
4:30 PM 42.8 °F - 42.8 °F 100% 29.88 in 2.5 mi Calm Calm - N/A Rain Rain
4:40 PM 42.8 °F 39.3 °F 42.8 °F 100% 29.89 in 2.5 mi WSW 5.8 mph - N/A Rain Light Rain
4:41 PM 42.8 °F 39.3 °F 42.8 °F 100% 29.89 in 3.0 mi WSW 5.8 mph - N/A Rain Rain
4:55 PM 44.6 °F 43.1 °F 42.8 °F 93% 29.88 in 6.0 mi South 3.5 mph - N/A Rain Light Rain
4:59 PM 44.6 °F 43.1 °F 42.8 °F 93% 29.88 in 8.0 mi South 3.5 mph - N/A Rain Light Rain
5:00 PM 44.6 °F 43.1 °F 42.8 °F 93% 29.88 in 8.0 mi South 3.5 mph - N/A Rain Light Rain
5:11 PM 44.6 °F - 42.8 °F 93% 29.87 in 6.0 mi Variable 2.3 mph - N/A Rain Light Rain
5:15 PM 44.6 °F - 42.8 °F 93% 29.87 in 5.0 mi Variable 2.3 mph - N/A Rain Light Rain
5:20 PM 42.8 °F - 42.8 °F 100% 29.87 in 7.0 mi Calm Calm - N/A Rain Light Rain
5:26 PM 44.6 °F - 42.8 °F 93% 29.86 in 5.0 mi Variable 2.3 mph - N/A Rain Light Rain
5:35 PM 42.8 °F - 42.8 °F 100% 29.86 in 6.0 mi Variable 2.3 mph - N/A Rain Light Rain
5:37 PM 42.8 °F 41.1 °F 42.8 °F 100% 29.86 in 7.0 mi WNW 3.5 mph - N/A Rain Light Rain
5:42 PM 42.8 °F - - N/A% 29.85 in 5.0 mi Variable 2.3 mph - N/A Rain Light Rain
5:43 PM 42.8 °F - 42.8 °F 100% 29.86 in 5.0 mi Variable 2.3 mph - N/A Rain Light Rain
5:48 PM 42.8 °F 41.1 °F 42.8 °F 100% 29.86 in 5.0 mi West 3.5 mph - N/A   Overcast
5:54 PM 42.8 °F 40.1 °F 42.8 °F 100% 29.86 in 6.0 mi West 4.6 mph - N/A   Overcast
6:00 PM 42.8 °F 41.1 °F 42.8 °F 100% 29.85 in 7.0 mi West 3.5 mph - N/A   Overcast
6:02 PM 42.8 °F 39.3 °F 42.8 °F 100% 29.85 in 7.0 mi SW 5.8 mph - N/A   Overcast
6:07 PM 42.8 °F 37.5 °F - N/A% 29.85 in 7.0 mi WSW 9.2 mph - N/A Rain Light Rain
7:00 PM 44.6 °F 41.4 °F 42.8 °F 93% 29.88 in 9.0 mi West 5.8 mph - N/A Rain Light Rain
7:15 PM 44.6 °F 39.2 °F 42.8 °F 93% 29.88 in 9.0 mi SW 10.4 mph - N/A Rain Light Rain
7:31 PM 44.6 °F 40.2 °F 42.8 °F 93% 29.89 in 8.0 mi SW 8.1 mph - N/A Rain Light Rain
7:51 PM 44.6 °F 38.4 °F 42.8 °F 93% 29.89 in 9.0 mi WSW 12.7 mph 23.0 mph N/A Rain Light Rain
7:55 PM 44.6 °F 37.8 °F 42.8 °F 93% 29.89 in 9.0 mi SW 15.0 mph - N/A   Overcast
8:00 PM 44.6 °F 38.1 °F 42.8 °F 93% 29.89 in 9.0 mi WSW 13.8 mph 21.9 mph N/A   Overcast
8:18 PM 46.4 °F 42.4 °F 42.8 °F 87% 29.90 in 9.0 mi WSW 8.1 mph 18.4 mph N/A Rain Light Rain
8:28 PM 46.4 °F 41.1 °F 42.8 °F 87% 29.90 in 9.0 mi SW 11.5 mph 23.0 mph N/A   Overcast
8:46 PM 48.2 °F - 44.6 °F 87% 29.91 in 9.0 mi West 17.3 mph 24.2 mph N/A Rain Light Rain
9:00 PM 48.2 °F - 44.6 °F 87% 29.91 in 9.0 mi WNW 16.1 mph 24.2 mph N/A Rain Light Rain
9:01 PM 48.2 °F - 44.6 °F 87% 29.91 in 9.0 mi West 16.1 mph 24.2 mph N/A   Overcast
10:00 PM 50.0 °F - 44.6 °F 82% 29.95 in 9.0 mi WNW 13.8 mph 19.6 mph N/A   Overcast
11:00 PM 51.8 °F - 42.8 °F 71% 29.98 in 9.0 mi WNW 15.0 mph 32.2 mph N/A   Overcast
11:19 PM 50.0 °F - 44.6 °F 82% 29.99 in 9.0 mi WNW 15.0 mph 24.2 mph N/A Rain Light Rain